Tracking 18945 objects as of 19-Jan-2018
HD Live streaming from Space Station
objects crossing your sky now

METEOSAT 5 AKM

Track METEOSAT 5 AKM now!


NORAD ID: 21904
Int'l Code: 1991-015E
Perigee: 35,189.2 km
Apogee: 36,481.6 km
Inclination: 14.5 °
Period: 1,438.2 minutes
Semi major axis: 42206 km
RCS: 0.9471 m2 (medium)
Launch date: March 2, 1991
Source: European Space Agency (ESA)
Launch site: FRENCH GUIANA (FRGUI)

Note: This is a ROCKET BODY
aabbcc
Your satellite tracking list
Your tracking list is empty




NASA's NSSDC Master Catalog

Two Line Element Set (TLE):
1 21904U 91015E   18018.50074862 -.00000010 +00000-0 +00000-0 0  9994
2 21904 014.4522 003.0596 0153106 156.1948 010.4590 01.00123286085600
Source of the keplerian elements: AFSPC